Flag for U.S.A. Weather past 2 weeks in Providence, Rhode Island, U.S.A.

Now
74 °F

Partly sunny.


Feels Like: 76 °F
Forecast: 62 / 81 °F
Wind: 18 mph from Southwest

Location: Green State Airport

Current Time: May 27, 2015 at 4:34:18 PM

Latest Report: May 27, 2015 at 3:51 PM


Visibility: 10 mi

Pressure: 30.15 "Hg

Humidity: 71%

Dew point: 64 °F

Location of ProvidenceLocation

Historic Weather in Providence — Graph

°F

Providence temperature yesterday

Maximum temperature yesterday: 83 °F (at 2:51 PM)
Minimum temperature yesterday: 62 °F (at 5:51 AM)
Average temperature yesterday: 72 °F

Past Weeks' High & Low Weather Summary

 TemperatureHumidityPressure
High83 °F (May 12, 2:51 PM)97% (May 17, 2:51 AM)30.35 "Hg (May 17, 2:51 AM)
Low45 °F (May 21, 5:51 AM)18% (May 24, 3:51 PM)29.68 "Hg (May 12, 6:51 PM)
Average62 °F59%30.10 "Hg
* Reported May 12 2:51 PM — May 27 2:51 PM, Providence, Weather by CustomWeather, © 2015

Note: Actual official high and low records may vary slightly from our data, if they occured in-between our weather recording intervals... More about our weather records

Advertising

Providence weather history for previous 24 hours

 ConditionsComfort  
Time TempWeatherWind HumidityBarometerVisibility
2:51 PM
Wed, May 27
76 °FPartly sunny.21 mph69%30.16 "Hg10 mi
1:51 PM79 °FPassing clouds.14 mph60%30.16 "Hg10 mi
12:51 PM78 °FScattered clouds.16 mph60%30.18 "Hg10 mi
11:51 AM75 °FScattered clouds.16 mph64%30.19 "Hg10 mi
10:51 AM76 °FBroken clouds.13 mph62%30.19 "Hg10 mi
9:51 AM72 °FBroken clouds.10 mph71%30.19 "Hg10 mi
8:51 AM69 °FBroken clouds.13 mph76%30.20 "Hg10 mi
7:51 AM68 °FBroken clouds.9 mph76%30.20 "Hg10 mi
6:51 AM65 °FBroken clouds.8 mph85%30.20 "Hg10 mi
5:51 AM63 °FPartly cloudy.7 mph87%30.19 "Hg10 mi
4:51 AM62 °FClear.7 mph90%30.19 "Hg10 mi
3:51 AM63 °FClear.3 mph87%30.18 "Hg10 mi
2:51 AM62 °FClear.8 mph90%30.18 "Hg10 mi
1:51 AM63 °FClear.6 mph87%30.19 "Hg10 mi
12:51 AM65 °FClear.7 mph81%30.19 "Hg10 mi
11:51 PM
Tue, May 26
66 °FPassing clouds.8 mph78%30.19 "Hg10 mi
10:51 PM67 °FPassing clouds.13 mph73%30.19 "Hg10 mi
9:51 PM68 °FPassing clouds.12 mph73%30.18 "Hg10 mi
8:51 PM71 °FPartly sunny.13 mph68%30.16 "Hg10 mi
7:51 PM73 °FPartly sunny.16 mph66%30.15 "Hg10 mi
6:51 PM76 °FPartly sunny.17 mph56%30.16 "Hg10 mi
5:51 PM80 °FPartly sunny.16 mph49%30.15 "Hg10 mi
4:51 PM82 °FPartly sunny.21 mph44%30.15 "Hg10 mi
Weather by CustomWeather, © 2015

See weather overviewHow to use our weather pages